Regional Weather Roundup
Issued by NWS

Home | Current Version | Previous Version | Graphics & Text | Print | Product List | Glossary Off
Versions: 1 2 3 4 5 6 7 8 9 10 11 12 13 14 15 16 17 18 19 20 21 22 23 24 25 26 27 28 29 30 31 32 33 34 35 36 37 38 39 40 41 42 43 44 45 46 47 48 49 50

256
ASUS43 KMKX 252211
RWRWI

WISCONSIN REGIONAL WEATHER ROUNDUP
NATIONAL WEATHER SERVICE MILWAUKEE/SULLIVAN WI
500 PM CDT SUN JUN 25 2017

NOTE: "FAIR" INDICATES FEW OR NO CLOUDS BELOW 12,000 FEET WITH NO
SIGNIFICANT WEATHER AND/OR OBSTRUCTIONS TO VISIBILITY.

WIZ001-002-006>008-014>016-023>028-252300-
NORTHWEST WISCONSIN

CITY           SKY/WX    TMP DP  RH WIND       PRES   REMARKS
SUPERIOR ARPT  NOT AVBL
ASHLAND        CLOUDY    55  49  80 W12       30.08R
HAYWARD        PTSUNNY   60  46  59 VRB5      30.08F
SIREN          PTSUNNY   62  43  48 N9        30.10F
CUMBERLAND     DRIZZLE   54  46  76 W8        30.11R
RICE LAKE      PTSUNNY   62  45  52 W15G26    30.11S
CHETEK         PTSUNNY   62  46  56 N6        30.09S
LADYSMITH      PTSUNNY   60  49  65 NW15G23   30.09F
EAU CLAIRE     MOSUNNY   64  47  53 NW9G25    30.08F
MENOMONIE      MOSUNNY   65  45  46 NW15G23   30.10F
NEW RICHMOND   MOSUNNY   65  38  35 NW17G24   30.11S
OSCEOLA        MOSUNNY   64  40  40 NW10G20   30.14S
$$

WIZ003>005-009-010-017-018-252300-
NORTH CENTRAL WISCONSIN

CITY           SKY/WX    TMP DP  RH WIND       PRES   REMARKS
MANITOWISH WTR CLOUDY    53  53 100 W10G16    30.04S
ARBOR VITAE    CLOUDY    55  52  91 NW9       30.03S
WOODRUFF       CLOUDY    55  52  91 NW9       30.03S
RHINELANDER    LGT RAIN  54  53  97 W10G17    30.04S
EAGLE RIVER    RAIN      53  52  98 NW7       30.02F
LAND O LAKES   TSTM      54  52  94 W3        30.04R
PHILLIPS       CLOUDY    53  50  90 NW12G18   30.06S
TOMAHAWK       NOT AVBL
MEDFORD        PTSUNNY   58  49  71 NW12      30.06R
MERRILL        CLOUDY    58  53  85 N7        30.05S
$$

WIZ029-030-035-036-043>047-252300-
CENTRAL WISCONSIN

CITY           SKY/WX    TMP DP  RH WIND       PRES   REMARKS
WAUSAU         CLOUDY    59  53  80 W12       30.04S
MOSINEE        NOT AVBL
MARSHFIELD     LGT RAIN  56  52  86 W10       30.07R FOG
STEVENS POINT  LGT RAIN  55  54  98 NW10      30.06R
WAUPACA        LGT RAIN  61  56  83 W3        30.03S
WAUTOMA        CLOUDY    66  52  59 W12       30.05F
WISC RAPIDS    LGT RAIN  55  52  89 NW6       30.09R
CAMP DOUGLAS   LGT RAIN  55  54  94 W7        30.09R
$$

WIZ011>013-019>022-031-037>040-048>050-252300-
NORTHEAST WISCONSIN

CITY           SKY/WX    TMP DP  RH WIND       PRES   REMARKS
ANTIGO         LGT RAIN  53  52  98 NW8       30.04S
SHAWANO        CLOUDY    62  56  80 W9        30.01R
OCONTO         CLOUDY    61  53  73 W8        29.99R
STURGEON BAY     N/A     62  52  69 S7          N/A
GREEN BAY      PTSUNNY   67  53  61 W21G29    30.00R
MANITOWOC      MOSUNNY   69  49  48 W14G21    30.00F
APPLETON       PTSUNNY   63  48  59 W14       30.01S
CLINTONVILLE   CLOUDY    63  48  59 W14G20    30.02S
OSHKOSH        PTSUNNY   64  51  62 NW14G22   30.03S
$$

WIZ032>034-041-042-053>061-252300-
SOUTHWEST WISCONSIN

CITY           SKY/WX    TMP DP  RH WIND       PRES   REMARKS
LA CROSSE      CLOUDY    71  51  49 NW15      30.10S
SPARTA         CLOUDY    61  55  82 NW13G22   30.11R
VIROQUA        CLOUDY    59  54  81 W13       30.12S
BOSCOBEL       CLOUDY    66  51  58 W10       30.13S
PRAIRIE DU CHI PTSUNNY   66  47  51 W17G23    30.13S
PLATTEVILLE    MOSUNNY   65  50  58 W20       30.14S
$$

WIZ056-057-062-063-064-067-068-252300-
SOUTH CENTRAL WISCONSIN

CITY           SKY/WX    TMP DP  RH WIND       PRES   REMARKS
REEDSBURG      CLOUDY    59  56  88 NW8       30.09R
BARABOO/DELLS  RAIN      62  49  62 W16G23    30.09R
LONE ROCK      LGT RAIN  62  53  72 W15G25    30.11R
MINERAL POINT  PTSUNNY   64  54  68 W18       30.12S
MADISON        PTSUNNY   65  50  58 W9        30.08F
MIDDLETON      CLOUDY    67  51  57 W13G20    30.09F
WATERTOWN      NOT AVBL
MONROE         CLOUDY    63  46  55 W16       30.11S
JANESVILLE     CLOUDY    66  48  52 W13G21    30.09S
$$

WIZ051-052-058>065-066-070>072-252300-
SOUTHEAST WISCONSIN

CITY           SKY/WX    TMP DP  RH WIND       PRES   REMARKS
MILWAUKEE      MOSUNNY   70  47  43 W16G22    30.04S
WAUKESHA       MOSUNNY   64  48  55 W15G23    30.06F
MILWAUKEE/TIMM MOSUNNY   68  43  40 W17G24    30.05F
RACINE         MOSUNNY   69  47  45 W12G18    30.06F
KENOSHA        MOSUNNY   67  49  52 W15G23    30.05F
FOND DU LAC    PTSUNNY   67  49  52 W15       30.03F
SHEBOYGAN      MOSUNNY   68  51  54 W18       30.01F
WEST BEND      PTSUNNY   64  46  52 W14       30.04S
JUNEAU         PTSUNNY   63  50  62 SW16      30.07S
$$

LSZ147-162-252300-
LAKE SUPERIOR

STATION/POSITION TIME  TEMP    WIND        PRES    WAVE
                       AIR SEA DIR/SP/G            HT/PER
                 (UTC) (F)     (DEG/KT/KT) (MB)    (FT/S)
W MID LAKE BUOY  2050   42 39   40/  2/  4 1017.0F   0
DEVILS ISLAND    2100   48     340/ 14/ 18 1018.0R
SAXON HARBOR     2130   55     280/ 10/ 14 1017.6R
$$

LMZ867-665-643>646-252300-
LAKE MICHIGAN

STATION/POSITION TIME  TEMP    WIND        PRES    WAVE
                       AIR SEA DIR/SP/G            HT/PER
                 (UTC) (F)     (DEG/KT/KT) (MB)    (FT/S)
CHAMBERS ISLAND  2140   58     230/  3/  5 1015.2S
S GREEN BAY BUOY 2130   63     200/ 10/ 12 1015.0F
N MID LAKE BUOY  2150   58 58  200/ 10/ 10 1015.7F   1/ 5
NORTHPORT PIER   2140   63     130/  4/  7 1014.9F
KEWAUNEE LAKESHO 2148   58      30/  4/  7 1015.4R
SHEBOYGAN LAKESH 2200   67     270/ 11/ 13 1015.9F
PORT WASHINGTON  2140   70     270/ 12/ 17 1017.6R
ATWATER BUOY     2009   65 57  270/ 14/ 17 1017.5S
MILWAUKEE LAKESH 2150   67     270/ 12/ 15   N/A
S MID LAKE BUOY  2050   63 62  260/  8/ 10 1017.8F   2/ 4
KENOSHA   LAKESH 2200   69     280/ 11/ 20 1016.9
$$

TC  - TEMPERATURE IN CELSIUS
VSB - VISIBILITY IN STATUTE MILES
WCI - WIND CHILL INDEX
HX  - HEAT INDEX





USA.gov is the U.S. government's official web portal to all federal, state and local government web resources and services.